Regional Weather Roundup
Issued by NWS Sterling, VA

Home | Current Version | Previous Version | Graphics & Text | Print | Product List | Glossary On
Versions: 1 2 3 4 5 6 7 8 9 10 11 12 13 14 15 16 17 18 19 20 21 22 23 24 25 26 27 28 29 30 31 32 33 34 35 36 37 38 39 40 41 42 43 44 45 46 47 48 49 50
000
ASUS41 KLWX 241810
RWRLWX

REGIONAL WEATHER ROUNDUP
NATIONAL WEATHER SERVICE BALTIMORE MD/WASHINGTON DC
100 PM EST MON NOV 24 2014

Note: "FAIR" indicates few or no clouds below 12,000 feet
with no significant weather and/or obstructions to visibility.
 TC=TEMPERATURE CELSIUS

 * =Non NWS site. Station does not report precipitation (e.g. rain,
    snow, etc.), thunder, or fog.

DCZ001-MDZ009-015-VAZ040>042-051-053>054-241900-
WASHINGTON METRO

CITY           SKY/WX    TMP DP  RH WIND       PRES   REMARKS
WASHINGTON NAT PTSUNNY   71  54  54 S21G29    29.65F
DULLES         PTSUNNY   67  54  63 S16G26    29.61F
ANDREWS AFB    PTSUNNY   69  56  61 S22G28    29.64F
FT BELVOIR     MOSUNNY   69  55  60 S8G21     29.64F
QUANTICO       MOSUNNY   68  52  56 SW15G25   29.65F
COLLEGE PARK*  MOSUNNY   70  54  56 SW13G23   29.63F
LEESBURG*      MOSUNNY   70  57  64 SW18G29   29.61F
MANASSAS*      MOSUNNY   70  55  60 SW15G26   29.62F
GAITHERSBURG*  MOSUNNY   66  54  63 S13G18    29.65F

$$

MDZ006>007-011-014-241900-
BALTIMORE METRO

CITY           SKY/WX    TMP DP  RH WIND       PRES   REMARKS
BWI AIRPORT    MOSUNNY   68  54  60 S18G29    29.62F
MD SCIENCE CTR   N/A     67  54  63 MISG      29.63F
MARTIN STATE   PTSUNNY   68  59  73 S10G18    29.65F
ANNAPOLIS      MOSUNNY   70  55  59 S13G20    29.64F
FORT MEADE*    MOSUNNY   68  54  60 S18G30    29.65F

$$

MDZ012-015-019>023-241900-
MARYLAND EASTERN SHORE

CITY           SKY/WX    TMP DP  RH WIND       PRES   REMARKS
OCEAN CITY     LGT RAIN  66  59  78 SW20G28   29.73F
SALISBURY      SUNNY     73  58  59 S24G31    29.71F
BAY BRIDGE AP*   N/A     68  54  60 S12G21    29.65F
CAMBRIDGE*     SUNNY     72  57  60 S15G26    29.67F
EASTON*        MOSUNNY   72  59  64 SW18G30   29.70F

$$

MDZ017>025-241900-
SOUTHERN MARYLAND

CITY           SKY/WX    TMP DP  RH WIND       PRES   REMARKS
PATUXENT RIVER MOSUNNY   71  56  58 S9G25     29.67F
ST INIGOES     SUNNY     70  54  56 S15G24    29.68F
LEONARDTOWN*   SUNNY     72  54  53 SW15G22   29.68F

$$

MDZ003>005-241900-
NORTH CENTRAL MARYLAND

CITY           SKY/WX    TMP DP  RH WIND       PRES   REMARKS
FREDERICK*     SUNNY     70  52  52 S17G29    29.61F
HAGERSTOWN APT SUNNY     69  52  54 S23G30    29.53F
WESTMINSTER*   MOSUNNY   66  55  68 S14G26    29.59F

$$

MDZ501>502-241900-
WESTERN MARYLAND

CITY           SKY/WX    TMP DP  RH WIND       PRES   REMARKS
OAKLAND*       MOSUNNY   61  32  33 SW16G30   29.54S
CUMBERLAND*    SUNNY     70  48  46 S17G26    29.54S

$$

VAZ025>031-241900-
SHENANDOAH VALLEY

CITY           SKY/WX    TMP DP  RH WIND       PRES   REMARKS
WINCHESTER*    SUNNY     70  45  40 S12G25    29.58R
FRONT ROYAL*   FAIR      70  54  56 SW9G16    29.57F
LURAY*         FAIR      70  54  56 SW15G24   29.59F
NEW MARKET*    FAIR      67  51  56 SW18G24   29.60S
STAUNTON*      SUNNY     68  48  47 SW22G29   29.64F
WAYNESBORO*    FAIR      66  51  57 S13G22    29.63F

$$

WVZ021-048>050-054>055-241900-
EASTERN WEST VIRGINIA PANHANDLE

CITY           SKY/WX    TMP DP  RH WIND       PRES   REMARKS
MARTINSBURG    MOSUNNY   70  51  51 S14G28    29.55F
PETERSBURG*    SUNNY     69  46  42 S17G24    29.55S

$$

VAZ036>039-050-241900-
CENTRAL FOOTHILLS

CITY           SKY/WX    TMP DP  RH WIND       PRES   REMARKS
CHARLOTTESVILL MOSUNNY   68  53  58 S17G28    29.64F
CULPEPER*      MOSUNNY   72  55  56 S12G24    29.64F
ORANGE*        SUNNY     70  54  56 S21G33    29.65F
GORDONSVILLE*  FAIR      69  54  58 SW14G29   29.64F
WARRENTON*     FAIR      71  59  65 S13G25    29.62F

$$

VAZ055>057-241900-
NORTH AND CENTRAL PIEDMONT

CITY           SKY/WX    TMP DP  RH WIND       PRES   REMARKS
FREDERICKSBRG* MOSUNNY   73  54  52 SW15G32   29.64F
STAFFORD*      SUNNY     70  51  50 SW16G25   29.68F

$$

NCZ024-NYZ072-PAZ021-071-VAZ022-071-241900-
OTHER REGIONAL OBSERVATIONS

CITY           SKY/WX    TMP DP  RH WIND       PRES   REMARKS
NEW YORK CITY  CLOUDY    68  59  73 S5        29.63F
PHILADELPHIA   PTSUNNY   72  57  59 SW22G32   29.63F
PITTSBURGH     PTSUNNY   68  42  38 SW40G52   29.39S
ROANOKE        MOSUNNY   69  51  52 S16G23    29.68F
RICHMOND       MOSUNNY   74  55  51 S24G32    29.70F
RALEIGH        PTSUNNY   70  59  68 SW17      29.78F

$$

ANZ530>537-241900-
MARINE OBSERVATIONS

STATION/POSITION TIME  TEMP    WIND        PRES
                       AIR SEA DIR/SP/G
                 (UTC) (F)     (DEG/KT/KT) (MB)
THOMAS PT LIGHT  1800   58 48  170/ 16/ 17 1005.0F
BALT KEY BRIDGE  1800   67     190/ 18/ 22 1002.9F
COVE POINT       1800   69     210/ 17/ 21 1004.5F
LEWISETTA        1800   69 47  220/ 20/ 26 1004.8F
SOLOMONS ISLAND  1800      50                N/A
PINEY POINT      1800          220/ 16/ 18   N/A

$$




USA.gov is the U.S. government's official web portal to all federal, state and local government web resources and services.